EW7899 Weather Reports


Display with metric or nautical units.
time (UTC)temp
F
wind
direction
speed
MPH
gust
MPH
rain 1hr
in
rain 24hr
in
rain mn
in
humidity
%
barometer
mb
20260906033019 59 333 0.0 0.0 0.00 0.00 0.00 86 1012.5
20260906031510 59 334 0.0 0.0 0.00 0.00 0.00 84 1012.3
20260906030021 60 359 0.0 0.0 0.00 0.00 0.00 83 1012.4
20260906024507 60 334 0.0 4.0 0.00 0.00 0.00 82 1012.4
20260906023021 60 145 0.0 5.0 0.00 0.00 0.00 82 1012.5
20260906021505 61 97 0.0 6.0 0.00 0.00 0.00 84 1012.5
20260906020012 61 258 1.0 4.0 0.00 0.00 0.00 86 1012.5
20260906014522 61 95 0.0 0.0 0.00 0.00 0.00 88 1012.3
20260906013027 61 104 0.0 0.0 0.00 0.00 0.00 90 1012.3
20260906011508 61 76 0.0 0.0 0.00 0.00 0.00 90 1012.3
20260906010022 61 75 0.0 0.0 0.00 0.00 0.00 91 1012.2
20260906004525 61 76 0.0 0.0 0.00 0.00 0.00 91 1012.0
20260906003011 61 76 0.0 0.0 0.00 0.00 0.00 90 1011.8
20260906001521 62 4 0.0 0.0 0.00 0.00 0.00 90 1011.7
20260906000010 62 4 0.0 0.0 0.00 0.00 0.00 90 1011.7
20260905234517 62 4 0.0 0.0 0.00 0.00 0.00 90 1011.5
20260905233024 63 4 0.0 0.0 0.00 0.00 0.00 89 1011.5
20260905231506 63 4 0.0 0.0 0.00 0.00 0.00 87 1011.8
20260905230016 63 8 0.0 0.0 0.00 0.00 0.00 87 1011.5
20260905224522 63 359 0.0 0.0 0.00 0.00 0.00 87 1011.5
20260905223023 64 249 0.0 0.0 0.00 0.00 0.00 86 1011.4
20260905221517 64 359 0.0 0.0 0.00 0.00 0.00 86 1011.2
20260905220012 64 359 0.0 8.0 0.00 0.00 0.00 84 1011.0
20260905214520 64 359 2.0 6.0 0.00 0.00 0.00 86 1010.9
20260905213005 64 146 0.0 0.0 0.00 0.00 0.00 87 1010.6
20260905211526 64 359 0.0 1.0 0.00 0.00 0.00 86 1010.7
20260905210022 64 359 0.0 0.0 0.00 0.00 0.00 85 1010.6
20260905204514 64 359 0.0 5.0 0.00 0.00 0.00 83 1010.5
20260905203003 65 359 5.0 10.0 0.00 0.00 0.00 80 1010.5
20260905201517 66 308 0.0 10.0 0.00 0.00 0.00 83 1010.3
20260905200006 66 330 1.0 8.0 0.00 0.00 0.00 81 1010.2
20260905194514 65 327 4.0 10.0 0.00 0.00 0.00 84 1010.2
20260905193008 65 337 0.0 1.0 0.00 0.00 0.00 85 1010.2
20260905191519 64 322 6.0 12.0 0.00 0.00 0.00 85 1010.3
20260905190007 64 349 0.0 1.0 0.00 0.00 0.00 87 1010.4
20260905184521 65 125 0.0 4.0 0.00 0.00 0.00 86 1010.3
20260905183007 67 175 0.0 6.0 0.00 0.00 0.00 79 1010.3
20260905181515 67 336 0.0 2.0 0.00 0.00 0.00 79 1010.2
20260905180007 67 322 6.0 11.0 0.00 0.00 0.00 79 1010.2
20260905174518 67 295 1.0 5.0 0.00 0.00 0.00 78 1010.2
20260905173006 66 10 3.0 9.0 0.00 0.00 0.00 81 1010.3
20260905171525 66 329 0.0 2.0 0.00 0.00 0.00 84 1010.3
20260905170005 65 50 0.0 0.0 0.00 0.00 0.00 84 1010.5
20260905164518 64 333 0.0 0.0 0.00 0.00 0.00 86 1010.5
20260905163018 64 354 0.0 5.0 0.00 0.00 0.00 85 1010.6
20260905161503 64 114 0.0 1.0 0.00 0.00 0.00 86 1010.8
20260905160023 64 27 0.0 7.0 0.00 0.00 0.00 87 1010.7
20260905154507 63 316 0.0 0.0 0.00 0.00 0.00 89 1010.7
20260905153016 63 115 0.0 6.0 0.00 0.00 0.00 89 1010.8
20260905151507 62 359 0.0 1.0 0.00 0.00 0.00 90 1010.8
20260905150016 62 359 0.0 2.0 0.00 0.00 0.00 90 1010.6
20260905144508 62 359 0.0 0.0 0.00 0.00 0.00 89 1010.8
20260905143021 62 359 0.0 5.0 0.00 0.00 0.00 88 1010.6
20260905141509 63 359 0.0 2.0 0.00 0.00 0.00 86 1010.5
20260905140016 64 359 0.0 5.0 0.00 0.00 0.00 84 1010.4
20260905134508 64 359 0.0 0.0 0.00 0.00 0.00 86 1010.3
20260905133018 63 297 0.0 5.0 0.00 0.00 0.00 88 1010.3
20260905131509 63 359 0.0 0.0 0.00 0.00 0.00 89 1010.3
20260905130017 62 359 0.0 2.0 0.00 0.00 0.00 89 1010.1
20260905124506 62 359 0.0 2.0 0.00 0.00 0.00 92 1010.0
20260905123017 61 359 0.0 6.0 0.00 0.00 0.00 94 1009.8
20260905121505 60 359 0.0 1.0 0.00 0.00 0.00 95 1009.6
20260905120023 59 359 0.0 0.0 0.00 0.00 0.00 95 1009.6
20260905114505 58 241 0.0 0.0 0.00 0.00 0.00 96 1009.5
20260905113015 58 241 0.0 0.0 0.00 0.00 0.00 96 1009.4
20260905111505 57 241 0.0 0.0 0.00 0.00 0.00 96 1009.3
20260905110018 57 241 0.0 0.0 0.00 0.00 0.00 96 1009.2
20260905104522 57 359 0.0 0.0 0.00 0.00 0.00 96 1009.1
20260905103010 57 359 0.0 0.0 0.00 0.00 0.00 96 1009.1
20260905101520 56 240 0.0 0.0 0.00 0.00 0.00 96 1008.9
20260905100007 56 241 0.0 0.0 0.00 0.00 0.00 96 1008.8
20260905094519 56 359 0.0 0.0 0.00 0.00 0.00 95 1008.9
20260905093009 56 240 0.0 0.0 0.00 0.00 0.00 95 1008.8
20260905091522 56 241 0.0 0.0 0.00 0.00 0.00 95 1008.7
20260905090010 56 240 0.0 0.0 0.00 0.00 0.00 95 1008.5
20260905084518 56 359 0.0 0.0 0.00 0.00 0.00 95 1008.5
20260905083010 56 359 0.0 0.0 0.00 0.00 0.00 95 1008.4
20260905081518 56 240 0.0 0.0 0.00 0.00 0.00 95 1008.5
20260905080007 57 240 0.0 0.0 0.00 0.00 0.00 95 1008.4
20260905074516 57 241 0.0 0.0 0.00 0.00 0.00 95 1008.4
20260905073010 57 240 0.0 0.0 0.00 0.00 0.00 95 1008.3
20260905071519 57 242 0.0 0.0 0.00 0.00 0.00 94 1008.3
20260905070010 57 241 0.0 1.0 0.00 0.00 0.00 94 1008.4
20260905064520 57 240 0.0 0.0 0.00 0.00 0.00 94 1008.4
20260905063010 58 359 0.0 5.0 0.00 0.00 0.00 95 1008.3
20260905061519 58 359 0.0 0.0 0.00 0.00 0.00 95 1008.3
20260905060011 58 189 0.0 1.0 0.00 0.00 0.00 94 1008.4
20260905054516 58 188 0.0 0.0 0.00 0.00 0.00 94 1008.4
20260905053025 58 189 0.0 0.0 0.00 0.00 0.00 94 1008.3
20260905051517 59 185 0.0 0.0 0.00 0.00 0.00 93 1008.3
20260905050004 59 185 0.0 0.0 0.00 0.00 0.00 94 1008.4
20260905044518 59 185 0.0 5.0 0.00 0.00 0.00 93 1008.5
20260905043007 59 233 0.0 0.0 0.00 0.00 0.00 93 1008.5
20260905041517 60 233 0.0 0.0 0.00 0.00 0.00 93 1008.5
20260905040008 60 233 1.0 4.0 0.00 0.00 0.00 93 1008.4
20260905034518 60 233 0.0 2.0 0.00 0.00 0.00 93 1008.4